Home   Weather   Sfax   Past weeks

Flag for Tunisia Past Weather in Sfax, Tunisia — Yesterday and Last 2 Weeks

Now
81 °F

Broken clouds.


Feels Like: 85 °F
Forecast: 70 / 88 °F
Wind: 13 mph from Northeast

Location: Sfax El-Maou

Current Time: Sep 30, 2016 at 12:50:42 PM

Latest Report: Sep 30, 2016 at 12:00 PM


Visibility: 5 mi

Pressure: 30.09 "Hg

Humidity: 79%

Dew Point: 73 °F

Location of SfaxLocation

Past Weather in Sfax — Graph

°F

Sfax Temperature Yesterday

Maximum temperature yesterday: 77 °F (at 3:00 PM)
Minimum temperature yesterday: 68 °F (at 4:00 AM)
Average temperature yesterday: 72 °F

High & Low Weather Summary for the Past Weeks

 TemperatureHumidityPressure
High91 °F (Sep 16, 11:00 AM)94% (Sep 16, 6:00 AM)30.24 "Hg (Sep 16, 6:00 AM)
Low66 °F (Sep 20, 6:00 AM)31% (Sep 19, 3:00 PM)29.86 "Hg (Sep 16, 4:00 PM)
Average76 °F71%30.05 "Hg
* Reported Sep 15 10:00 AM — Sep 30 10:00 AM, Sfax, Weather by CustomWeather, © 2016

Note: Actual official high and low records may vary slightly from our data, if they occured in-between our weather recording intervals... More about our weather records

Advertising

Sfax Weather History for the Previous 24 Hours

Scroll right to see more
 ConditionsComfort  
Time TempWeatherWind HumidityBarometerVisibility
10:00 AM
Fri, Sep 30
77 °FPartly sunny.8 mph83%30.09 "Hg5 mi
9:00 AM75 °FPassing clouds.8 mph89%30.09 "Hg5 mi
8:00 AM70 °FFog.8 mph94%30.09 "Hg2 mi
7:00 AM68 °FFog.6 mph94%30.09 "Hg1 mi
6:00 AM68 °FPassing clouds.8 mph94%30.07 "Hg3 mi
5:00 AM68 °FPassing clouds.7 mph94%30.09 "Hg3 mi
4:00 AM68 °FPassing clouds.8 mph94%30.09 "Hg4 mi
3:00 AM68 °FPassing clouds.5 mph94%30.12 "Hg4 mi
2:00 AM68 °FPassing clouds.5 mph94%30.12 "Hg4 mi
1:00 AM68 °FPassing clouds.6 mph94%30.12 "Hg4 mi
12:00 AM68 °FPassing clouds.3 mph94%30.15 "Hg4 mi
11:00 PM
Thu, Sep 29
70 °FPassing clouds.8 mph88%30.15 "Hg4 mi
10:00 PM70 °FPassing clouds.5 mph94%30.18 "Hg4 mi
9:00 PM70 °FPassing clouds.8 mph94%30.18 "Hg5 mi
8:00 PM72 °FPassing clouds.5 mph88%30.15 "Hg5 mi
7:00 PM73 °FPassing clouds.3 mph83%30.15 "Hg5 mi
6:00 PM75 °FScattered clouds.6 mph78%30.15 "Hg5 mi
5:00 PM77 °FScattered clouds.6 mph74%30.15 "Hg5 mi
4:00 PM77 °FScattered clouds.7 mph79%30.12 "Hg4 mi
3:00 PM77 °FScattered clouds.8 mph79%30.15 "Hg4 mi
2:00 PM75 °FScattered clouds.12 mph83%30.15 "Hg4 mi
1:00 PM75 °FScattered clouds.9 mph78%30.18 "Hg4 mi
12:00 PM73 °FBroken clouds.9 mph89%30.21 "Hg4 mi
Weather by CustomWeather, © 2016

See weather overviewHow to use our weather pages